Home > Weather > Cairo > Past weeks

Flag for Egypt Weather for the Past 2 Weeks in Cairo, Egypt

Now
61 °F

Passing clouds.


Feels Like: 61 °F
Forecast: 44 / 68 °F
Wind: 5 mph from North

Location: Cairo Airport

Current Time: Feb 10, 2016 at 8:23:48 PM

Latest Report: Feb 10, 2016 at 8:00 PM


Visibility: N/A

Pressure: 30.21 "Hg

Humidity: 55%

Dew point: 45 °F

Location of CairoLocation

Historic Weather in Cairo — Graph

°F

Cairo Temperature Yesterday

Maximum temperature yesterday: 64 °F (at 2:00 PM)
Minimum temperature yesterday: 46 °F (at 5:30 AM)
Average temperature yesterday: 56 °F

High & Low Weather Summary for the Past Weeks

 TemperatureHumidityPressure
High77 °F (Feb 4, 2:00 PM)100% (Jan 28, 6:00 AM)30.45 "Hg (Jan 28, 6:00 AM)
Low41 °F (Jan 28, 5:30 AM)22% (Feb 4, 3:00 PM)29.95 "Hg (Feb 5, 3:00 AM)
Average56 °F63%30.23 "Hg
* Reported Jan 26 7:00 PM — Feb 10 7:00 PM, Cairo, Weather by CustomWeather, © 2016

Note: Actual official high and low records may vary slightly from our data, if they occured in-between our weather recording intervals... More about our weather records

Advertising

Cairo Weather History for the Previous 24 Hours

 ConditionsComfort  
Time TempWeatherWind HumidityBarometerVisibility
7:00 PM
Wed, Feb 10
63 °FPassing clouds.3 mph52%30.18 "HgN/A
6:30 PM63 °FPassing clouds.6 mph52%30.18 "HgN/A
6:00 PM63 °FPassing clouds.7 mph52%30.18 "HgN/A
5:30 PM64 °FScattered clouds.8 mph49%30.18 "HgN/A
5:00 PM64 °FScattered clouds.9 mph46%30.18 "HgN/A
4:30 PM64 °FScattered clouds.12 mph46%30.15 "HgN/A
4:00 PM64 °FScattered clouds.13 mph46%30.15 "HgN/A
3:00 PM64 °FScattered clouds.12 mph46%30.15 "HgN/A
2:30 PM64 °FMild.12 mph46%30.15 "HgN/A
2:00 PM64 °FScattered clouds.15 mph46%30.15 "HgN/A
1:30 PM63 °FPartly sunny.17 mph39%30.15 "HgN/A
1:00 PM61 °FPartly sunny.10 mph52%30.15 "HgN/A
12:30 PM61 °FPartly sunny.10 mph52%30.15 "HgN/A
12:00 PM63 °FPartly sunny.10 mph49%30.18 "HgN/A
11:30 AM63 °FPartly sunny.16 mph52%30.18 "HgN/A
11:00 AM63 °FScattered clouds.10 mph56%30.18 "HgN/A
10:30 AM63 °FScattered clouds.10 mph52%30.18 "HgN/A
10:00 AM61 °FPassing clouds.5 mph59%30.18 "HgN/A
9:30 AM57 °FScattered clouds.5 mph59%30.18 "Hg4 mi
9:00 AM57 °FScattered clouds.3 mph63%30.18 "Hg4 mi
8:30 AM57 °FScattered clouds.8 mph67%30.18 "Hg4 mi
8:00 AM55 °FScattered clouds.6 mph72%30.15 "Hg4 mi
7:30 AM55 °FScattered clouds.6 mph77%30.15 "Hg4 mi
7:00 AM54 °FScattered clouds.No wind77%30.15 "Hg4 mi
6:30 AM54 °FPassing clouds.5 mph77%30.15 "Hg4 mi
6:00 AM55 °FPassing clouds.7 mph72%30.12 "HgN/A
5:30 AM55 °FPassing clouds.6 mph72%30.12 "HgN/A
5:00 AM55 °FPassing clouds.6 mph72%30.12 "HgN/A
4:30 AM57 °FPassing clouds.8 mph67%30.12 "HgN/A
4:00 AM57 °FPassing clouds.8 mph67%30.12 "HgN/A
3:30 AM57 °FOvercast.8 mph67%30.12 "HgN/A
2:30 AM59 °FOvercast.8 mph59%30.15 "HgN/A
2:00 AM59 °FOvercast.8 mph59%30.15 "HgN/A
1:30 AM59 °FOvercast.2 mph59%30.15 "HgN/A
1:00 AM59 °FOvercast.2 mph59%30.15 "HgN/A
12:00 AM59 °FOvercast.2 mph59%30.15 "HgN/A
11:30 PM
Tue, Feb 9
59 °FOvercast.6 mph59%30.15 "HgN/A
11:00 PM59 °FOvercast.6 mph59%30.15 "HgN/A
10:30 PM59 °FOvercast.8 mph59%30.18 "HgN/A
10:00 PM59 °FOvercast.8 mph59%30.18 "HgN/A
9:30 PM59 °FOvercast.9 mph55%30.18 "HgN/A
9:00 PM61 °FPassing clouds.10 mph52%30.18 "HgN/A
8:30 PM59 °FPassing clouds.9 mph48%30.15 "HgN/A
8:00 PM59 °FPassing clouds.5 mph45%30.15 "HgN/A
Weather by CustomWeather, © 2016

See weather overviewHow to use our weather pages